Time,TemperatureF,DewpointF,PressureIn,WindDirection,WindDirectionDegrees,WindSpeedMPH,WindSpeedGustMPH,Humidity,HourlyPrecipIn,Conditions,Clouds,dailyrainin,SoftwareType,DateUTC
2013-01-30 00:03:00,45.0,43.1,30.25,ESE,113,1.3,1.3,93,0.01,,,0.00,WUHU216HW,2013-01-30 08:03:00,
2013-01-30 00:08:00,45.0,43.1,30.25,South,180,2.0,2.0,93,0.01,,,0.00,WUHU216HW,2013-01-30 08:08:00,
2013-01-30 00:13:00,45.0,43.1,30.24,NE,45,1.1,2.0,93,0.01,,,0.00,WUHU216HW,2013-01-30 08:13:00,
2013-01-30 00:18:00,44.8,42.9,30.24,ESE,113,0.4,2.0,93,0.01,,,0.00,WUHU216HW,2013-01-30 08:18:00,
2013-01-30 00:23:00,44.8,42.9,30.24,SE,135,1.1,2.7,93,0.01,,,0.00,WUHU216HW,2013-01-30 08:23:00,
2013-01-30 00:28:00,44.8,42.9,30.24,North,0,1.3,2.7,93,0.01,,,0.00,WUHU216HW,2013-01-30 08:28:00,
2013-01-30 00:33:00,44.8,42.9,30.25,North,0,0.4,1.3,93,0.01,,,0.00,WUHU216HW,2013-01-30 08:33:00,
2013-01-30 00:38:00,44.8,42.9,30.24,SW,225,0.4,1.3,93,0.00,,,0.00,WUHU216HW,2013-01-30 08:38:00,
2013-01-30 00:43:00,44.8,42.9,30.24,ESE,113,1.8,1.8,93,0.00,,,0.00,WUHU216HW,2013-01-30 08:43:00,
2013-01-30 00:48:00,44.8,42.9,30.24,SE,135,2.0,2.0,93,0.00,,,0.00,WUHU216HW,2013-01-30 08:48:00,
2013-01-30 00:53:00,44.8,42.9,30.24,SSE,158,3.4,3.4,93,0.00,,,0.00,WUHU216HW,2013-01-30 08:53:00,
2013-01-30 00:58:00,44.8,42.9,30.24,SW,225,0.4,3.4,93,0.00,,,0.00,WUHU216HW,2013-01-30 08:58:00,
2013-01-30 01:03:00,44.8,42.9,30.24,South,180,0.0,3.4,93,0.00,,,0.00,WUHU216HW,2013-01-30 09:03:00,
2013-01-30 01:08:00,44.8,42.9,30.24,ENE,68,1.8,1.8,93,0.00,,,0.00,WUHU216HW,2013-01-30 09:08:00,
2013-01-30 01:13:00,44.8,42.9,30.24,East,90,0.4,1.8,93,0.00,,,0.00,WUHU216HW,2013-01-30 09:13:00,
2013-01-30 01:18:00,45.0,43.1,30.24,WSW,248,1.6,3.1,93,0.00,,,0.00,WUHU216HW,2013-01-30 09:18:00,
2013-01-30 01:23:00,45.0,43.1,30.24,SSW,203,1.6,3.1,93,0.00,,,0.00,WUHU216HW,2013-01-30 09:23:00,
2013-01-30 01:28:00,45.0,43.1,30.24,SSW,203,2.2,2.5,93,0.00,,,0.00,WUHU216HW,2013-01-30 09:28:00,
2013-01-30 01:33:00,45.0,43.1,30.24,NE,45,0.4,2.2,93,0.00,,,0.00,WUHU216HW,2013-01-30 09:33:00,
2013-01-30 01:38:00,45.0,43.1,30.24,ESE,113,0.7,2.2,93,0.00,,,0.00,WUHU216HW,2013-01-30 09:38:00,
2013-01-30 01:43:00,45.0,43.1,30.25,SSW,203,0.2,0.7,93,0.00,,,0.00,WUHU216HW,2013-01-30 09:43:00,
2013-01-30 01:48:00,45.0,43.1,30.24,East,90,0.4,1.8,93,0.00,,,0.00,WUHU216HW,2013-01-30 09:48:00,
2013-01-30 01:53:00,45.0,43.1,30.25,SSE,158,1.3,1.8,93,0.00,,,0.00,WUHU216HW,2013-01-30 09:53:00,
2013-01-30 01:58:00,45.0,43.1,30.24,ESE,113,0.0,1.3,93,0.00,,,0.00,WUHU216HW,2013-01-30 09:58:00,
2013-01-30 02:03:00,45.0,43.1,30.25,North,0,0.2,1.3,93,0.00,,,0.00,WUHU216HW,2013-01-30 10:03:00,
2013-01-30 02:08:00,45.0,43.1,30.25,North,0,0.0,0.7,93,0.00,,,0.00,WUHU216HW,2013-01-30 10:08:00,
2013-01-30 02:13:00,45.0,43.1,30.25,SSW,203,0.9,0.9,93,0.00,,,0.00,WUHU216HW,2013-01-30 10:13:00,
2013-01-30 02:18:00,45.0,43.1,30.25,SE,135,0.4,0.9,93,0.00,,,0.00,WUHU216HW,2013-01-30 10:18:00,
2013-01-30 02:23:00,45.0,43.1,30.25,East,90,0.7,2.2,93,0.00,,,0.00,WUHU216HW,2013-01-30 10:23:00,
2013-01-30 02:28:00,45.0,43.1,30.25,SSE,158,0.4,2.2,93,0.00,,,0.00,WUHU216HW,2013-01-30 10:28:00,
2013-01-30 02:33:00,45.0,43.1,30.25,West,270,1.6,2.5,93,0.00,,,0.00,WUHU216HW,2013-01-30 10:33:00,
2013-01-30 02:38:00,45.2,43.3,30.25,SW,225,0.0,2.5,93,0.00,,,0.00,WUHU216HW,2013-01-30 10:38:00,
2013-01-30 02:43:00,45.2,43.3,30.25,West,270,0.0,1.6,93,0.00,,,0.00,WUHU216HW,2013-01-30 10:43:00,
2013-01-30 02:48:00,45.4,43.5,30.25,NW,315,0.9,0.9,93,0.00,,,0.00,WUHU216HW,2013-01-30 10:48:00,
2013-01-30 02:53:00,45.2,43.3,30.25,NNE,23,0.0,0.9,93,0.00,,,0.00,WUHU216HW,2013-01-30 10:53:00,
2013-01-30 02:58:00,45.4,43.5,30.25,NNE,23,0.0,0.9,93,0.00,,,0.00,WUHU216HW,2013-01-30 10:58:00,
2013-01-30 03:03:00,45.2,43.3,30.25,NNE,23,0.0,0.0,93,0.00,,,0.00,WUHU216HW,2013-01-30 11:03:00,
2013-01-30 03:08:00,45.2,43.3,30.25,NNE,23,0.4,0.7,93,0.01,,,0.01,WUHU216HW,2013-01-30 11:08:00,
2013-01-30 03:13:00,45.2,43.6,30.25,West,270,1.1,1.3,94,0.01,,,0.01,WUHU216HW,2013-01-30 11:13:00,
2013-01-30 03:18:00,45.2,43.6,30.25,West,270,0.0,1.3,94,0.01,,,0.01,WUHU216HW,2013-01-30 11:18:00,
2013-01-30 03:23:00,45.2,43.6,30.25,WSW,248,0.0,1.1,94,0.01,,,0.01,WUHU216HW,2013-01-30 11:23:00,
2013-01-30 03:28:00,45.2,43.6,30.25,WSW,248,0.0,0.0,94,0.01,,,0.01,WUHU216HW,2013-01-30 11:28:00,
2013-01-30 03:33:00,45.2,43.6,30.25,WSW,248,0.0,0.0,94,0.01,,,0.01,WUHU216HW,2013-01-30 11:33:00,
2013-01-30 03:38:00,45.2,43.6,30.26,WNW,293,1.8,1.8,94,0.01,,,0.01,WUHU216HW,2013-01-30 11:38:00,
2013-01-30 03:43:00,45.2,43.6,30.26,WNW,293,0.0,1.8,94,0.01,,,0.01,WUHU216HW,2013-01-30 11:43:00,
2013-01-30 03:48:00,45.2,43.6,30.26,WNW,293,0.0,1.8,94,0.01,,,0.01,WUHU216HW,2013-01-30 11:48:00,
2013-01-30 03:53:00,45.2,43.6,30.26,WNW,293,0.0,0.0,94,0.01,,,0.01,WUHU216HW,2013-01-30 11:53:00,
2013-01-30 03:58:00,45.2,43.6,30.26,WNW,293,0.0,0.0,94,0.01,,,0.01,WUHU216HW,2013-01-30 11:58:00,
2013-01-30 04:03:00,45.2,43.6,30.25,WSW,248,0.7,0.7,94,0.01,,,0.01,WUHU216HW,2013-01-30 12:03:00,
2013-01-30 04:08:00,45.2,43.6,30.25,SSE,158,0.0,0.7,94,0.00,,,0.01,WUHU216HW,2013-01-30 12:08:00,
2013-01-30 04:13:00,45.2,43.6,30.25,ESE,113,0.7,1.8,94,0.00,,,0.01,WUHU216HW,2013-01-30 12:13:00,
2013-01-30 04:18:00,45.2,43.6,30.25,SE,135,0.2,1.8,94,0.00,,,0.01,WUHU216HW,2013-01-30 12:18:00,
2013-01-30 04:23:00,45.2,43.6,30.25,East,90,0.0,0.7,94,0.00,,,0.01,WUHU216HW,2013-01-30 12:23:00,
2013-01-30 04:28:00,45.2,43.6,30.25,East,90,0.0,0.2,94,0.00,,,0.01,WUHU216HW,2013-01-30 12:28:00,
2013-01-30 04:33:00,45.2,43.6,30.25,ESE,113,0.0,0.2,94,0.00,,,0.01,WUHU216HW,2013-01-30 12:33:00,
2013-01-30 04:38:00,45.4,43.7,30.24,ESE,113,0.2,0.2,94,0.00,,,0.01,WUHU216HW,2013-01-30 12:38:00,
2013-01-30 04:43:00,45.4,43.7,30.25,SSE,158,0.9,2.0,94,0.00,,,0.01,WUHU216HW,2013-01-30 12:43:00,
2013-01-30 04:48:00,45.4,43.7,30.25,SSW,203,0.0,2.0,94,0.00,,,0.01,WUHU216HW,2013-01-30 12:48:00,
2013-01-30 04:53:00,45.4,43.7,30.25,WNW,293,0.0,1.1,94,0.00,,,0.01,WUHU216HW,2013-01-30 12:53:00,
2013-01-30 04:58:00,45.4,43.7,30.24,WNW,293,0.0,0.0,94,0.00,,,0.01,WUHU216HW,2013-01-30 12:58:00,
2013-01-30 05:03:00,45.4,43.7,30.24,WNW,293,0.9,0.9,94,0.00,,,0.01,WUHU216HW,2013-01-30 13:03:00,
2013-01-30 05:08:00,45.4,43.7,30.25,WNW,293,1.1,1.1,94,0.00,,,0.01,WUHU216HW,2013-01-30 13:08:00,
2013-01-30 05:13:00,45.4,43.7,30.25,WSW,248,1.1,1.1,94,0.00,,,0.01,WUHU216HW,2013-01-30 13:13:00,
2013-01-30 05:18:00,45.4,43.7,30.24,SSW,203,2.0,2.0,94,0.00,,,0.01,WUHU216HW,2013-01-30 13:18:00,
2013-01-30 05:23:00,45.4,43.7,30.25,WSW,248,0.4,2.0,94,0.00,,,0.01,WUHU216HW,2013-01-30 13:23:00,
2013-01-30 05:28:00,45.5,43.9,30.25,WSW,248,0.0,2.0,94,0.00,,,0.01,WUHU216HW,2013-01-30 13:28:00,
2013-01-30 05:33:00,45.4,43.7,30.25,WSW,248,0.9,1.6,94,0.00,,,0.01,WUHU216HW,2013-01-30 13:33:00,
2013-01-30 05:38:00,45.4,43.7,30.26,WSW,248,0.7,1.6,94,0.00,,,0.01,WUHU216HW,2013-01-30 13:38:00,
2013-01-30 05:43:00,45.4,43.7,30.26,WSW,248,0.2,0.9,94,0.00,,,0.01,WUHU216HW,2013-01-30 13:43:00,
2013-01-30 05:48:00,45.5,43.9,30.26,WSW,248,0.0,0.7,94,0.00,,,0.01,WUHU216HW,2013-01-30 13:48:00,
2013-01-30 05:53:00,45.5,43.9,30.26,WSW,248,0.0,0.0,94,0.00,,,0.01,WUHU216HW,2013-01-30 13:53:00,
2013-01-30 05:54:00,45.4,43.7,30.26,WSW,248,0.0,0.0,94,0.00,,,0.01,WUHU216HW,2013-01-30 13:54:00,
2013-01-30 06:01:00,45.4,43.7,30.26,WSW,248,0.0,0.0,94,0.01,,,0.01,WUHU216HW,2013-01-30 14:01:00,
2013-01-30 06:07:00,45.4,43.7,30.26,WSW,248,0.0,0.0,94,0.01,,,0.02,WUHU216HW,2013-01-30 14:07:00,
2013-01-30 06:13:00,45.4,43.7,30.26,WSW,248,0.0,0.0,94,0.01,,,0.02,WUHU216HW,2013-01-30 14:13:00,
2013-01-30 06:19:00,45.5,43.9,30.26,ESE,113,0.4,0.4,94,0.01,,,0.02,WUHU216HW,2013-01-30 14:19:00,
2013-01-30 06:25:00,45.5,44.2,30.26,ESE,113,0.4,0.4,95,0.01,,,0.02,WUHU216HW,2013-01-30 14:25:00,
2013-01-30 06:30:00,45.5,43.9,30.26,ESE,113,0.0,0.4,94,0.02,,,0.03,WUHU216HW,2013-01-30 14:30:00,
2013-01-30 06:36:00,45.5,44.2,30.26,ESE,113,0.0,0.4,95,0.02,,,0.03,WUHU216HW,2013-01-30 14:36:00,
2013-01-30 06:42:00,45.5,43.9,30.26,ESE,113,0.0,0.0,94,0.02,,,0.03,WUHU216HW,2013-01-30 14:42:00,
2013-01-30 06:48:00,45.5,44.2,30.26,SSW,203,0.2,0.2,95,0.02,,,0.03,WUHU216HW,2013-01-30 14:48:00,
2013-01-30 06:54:00,45.5,44.2,30.26,SSW,203,0.0,0.2,95,0.02,,,0.03,WUHU216HW,2013-01-30 14:54:00,
2013-01-30 07:01:00,45.4,43.7,30.27,SSW,203,0.0,0.0,94,0.01,,,0.03,WUHU216HW,2013-01-30 15:01:00,
2013-01-30 07:07:00,45.4,44.0,30.26,SSE,158,0.9,0.9,95,0.01,,,0.03,WUHU216HW,2013-01-30 15:07:00,
2013-01-30 07:12:00,45.4,44.0,30.26,SSE,158,0.0,0.9,95,0.01,,,0.03,WUHU216HW,2013-01-30 15:12:00,
2013-01-30 07:18:00,45.4,44.0,30.26,SE,135,0.4,0.4,95,0.01,,,0.03,WUHU216HW,2013-01-30 15:18:00,
2013-01-30 07:24:00,45.5,44.2,30.26,East,90,1.3,1.3,95,0.01,,,0.03,WUHU216HW,2013-01-30 15:24:00,
2013-01-30 07:30:00,45.5,43.9,30.27,ESE,113,0.0,1.3,94,0.00,,,0.03,WUHU216HW,2013-01-30 15:30:00,
2013-01-30 07:36:00,45.4,43.7,30.27,West,270,0.4,0.4,94,0.00,,,0.03,WUHU216HW,2013-01-30 15:36:00,
2013-01-30 07:42:00,45.4,44.0,30.27,South,180,0.0,0.9,95,0.00,,,0.03,WUHU216HW,2013-01-30 15:42:00,
2013-01-30 07:48:00,45.4,44.0,30.28,SW,225,1.8,2.9,95,0.00,,,0.03,WUHU216HW,2013-01-30 15:48:00,
2013-01-30 07:54:00,45.4,44.0,30.27,South,180,2.7,2.9,95,0.00,,,0.03,WUHU216HW,2013-01-30 15:54:00,
2013-01-30 08:00:00,45.4,44.0,30.28,WSW,248,0.9,2.7,95,0.00,,,0.03,WUHU216HW,2013-01-30 16:00:00,
2013-01-30 08:15:00,45.2,43.6,30.28,SSW,203,0.0,1.8,94,0.00,,,0.03,WUHU216HW,2013-01-30 16:15:00,
2013-01-30 08:25:00,45.2,43.6,30.28,SE,135,0.4,0.7,94,0.00,,,0.03,WUHU216HW,2013-01-30 16:25:00,
2013-01-30 08:30:00,45.4,43.7,30.28,SE,135,1.1,1.1,94,0.00,,,0.03,WUHU216HW,2013-01-30 16:30:00,
2013-01-30 08:35:00,45.4,43.7,30.28,SE,135,0.0,1.1,94,0.00,,,0.03,WUHU216HW,2013-01-30 16:35:00,
2013-01-30 08:40:00,45.4,43.7,30.28,SE,135,0.9,1.1,94,0.00,,,0.03,WUHU216HW,2013-01-30 16:40:00,
2013-01-30 08:45:00,45.4,43.7,30.29,WSW,248,0.4,0.9,94,0.00,,,0.03,WUHU216HW,2013-01-30 16:45:00,
2013-01-30 08:50:00,45.4,43.7,30.29,SSW,203,0.7,0.9,94,0.00,,,0.03,WUHU216HW,2013-01-30 16:50:00,
2013-01-30 08:55:00,45.4,43.7,30.29,SW,225,0.0,0.7,94,0.00,,,0.03,WUHU216HW,2013-01-30 16:55:00,
2013-01-30 09:00:00,45.4,43.7,30.29,ESE,113,0.4,0.9,94,0.00,,,0.03,WUHU216HW,2013-01-30 17:00:00,
2013-01-30 09:05:00,45.5,43.9,30.29,South,180,0.4,0.9,94,0.00,,,0.03,WUHU216HW,2013-01-30 17:05:00,
2013-01-30 09:10:00,45.5,43.9,30.29,SSE,158,0.0,0.4,94,0.00,,,0.03,WUHU216HW,2013-01-30 17:10:00,
2013-01-30 09:15:00,45.7,44.1,30.29,ENE,68,0.9,1.1,94,0.00,,,0.03,WUHU216HW,2013-01-30 17:15:00,
2013-01-30 09:20:00,45.7,44.1,30.29,East,90,0.0,1.1,94,0.00,,,0.03,WUHU216HW,2013-01-30 17:20:00,
2013-01-30 09:25:00,45.7,44.1,30.29,East,90,0.0,0.9,94,0.00,,,0.03,WUHU216HW,2013-01-30 17:25:00,
2013-01-30 09:30:00,45.7,44.1,30.29,SE,135,0.0,0.0,94,0.00,,,0.03,WUHU216HW,2013-01-30 17:30:00,
2013-01-30 09:35:00,45.9,44.3,30.29,SE,135,0.0,0.0,94,0.00,,,0.03,WUHU216HW,2013-01-30 17:35:00,
2013-01-30 09:40:00,45.9,44.3,30.29,ESE,113,0.0,0.0,94,0.00,,,0.03,WUHU216HW,2013-01-30 17:40:00,
2013-01-30 09:45:00,46.1,44.5,30.29,ESE,113,0.0,0.0,94,0.00,,,0.03,WUHU216HW,2013-01-30 17:45:00,
2013-01-30 09:50:00,46.1,44.5,30.30,ESE,113,0.0,0.0,94,0.00,,,0.03,WUHU216HW,2013-01-30 17:50:00,
2013-01-30 09:55:00,46.3,44.6,30.29,ESE,113,0.0,0.0,94,0.00,,,0.03,WUHU216HW,2013-01-30 17:55:00,
2013-01-30 10:00:00,46.3,44.9,30.30,ESE,113,0.0,0.0,95,0.00,,,0.03,WUHU216HW,2013-01-30 18:00:00,
2013-01-30 10:05:00,46.4,45.1,30.30,ESE,113,0.0,0.2,95,0.00,,,0.03,WUHU216HW,2013-01-30 18:05:00,
2013-01-30 10:10:00,46.4,45.1,30.30,NE,45,0.7,0.7,95,0.00,,,0.03,WUHU216HW,2013-01-30 18:10:00,
2013-01-30 10:15:00,46.4,44.8,30.30,NNE,23,0.4,1.1,94,0.00,,,0.03,WUHU216HW,2013-01-30 18:15:00,
2013-01-30 10:20:00,46.4,44.8,30.30,North,0,0.0,1.1,94,0.00,,,0.03,WUHU216HW,2013-01-30 18:20:00,
2013-01-30 10:25:00,46.4,44.8,30.30,North,0,0.0,0.9,94,0.00,,,0.03,WUHU216HW,2013-01-30 18:25:00,
2013-01-30 10:30:00,46.4,44.8,30.30,North,0,0.0,0.0,94,0.00,,,0.03,WUHU216HW,2013-01-30 18:30:00,
2013-01-30 10:35:00,46.6,45.0,30.30,North,0,0.0,0.0,94,0.00,,,0.03,WUHU216HW,2013-01-30 18:35:00,
2013-01-30 10:40:00,46.6,45.0,30.30,North,0,0.0,0.0,94,0.00,,,0.03,WUHU216HW,2013-01-30 18:40:00,
2013-01-30 10:45:00,46.6,45.0,30.31,North,0,0.0,0.0,94,0.00,,,0.03,WUHU216HW,2013-01-30 18:45:00,
2013-01-30 10:50:00,46.8,45.2,30.31,North,0,0.0,0.0,94,0.00,,,0.03,WUHU216HW,2013-01-30 18:50:00,
2013-01-30 10:55:00,46.8,45.2,30.31,North,0,0.7,0.7,94,0.00,,,0.03,WUHU216HW,2013-01-30 18:55:00,
2013-01-30 11:00:00,47.0,45.4,30.31,North,0,0.0,0.7,94,0.00,,,0.03,WUHU216HW,2013-01-30 19:00:00,
2013-01-30 11:05:00,47.0,45.4,30.30,North,0,0.0,0.7,94,0.00,,,0.03,WUHU216HW,2013-01-30 19:05:00,
2013-01-30 11:10:00,47.0,45.4,30.31,North,0,0.0,0.0,94,0.00,,,0.03,WUHU216HW,2013-01-30 19:10:00,
2013-01-30 11:15:00,47.0,45.4,30.31,North,0,0.0,0.0,94,0.00,,,0.03,WUHU216HW,2013-01-30 19:15:00,
2013-01-30 11:20:00,47.0,45.4,30.31,North,0,0.0,0.0,94,0.00,,,0.03,WUHU216HW,2013-01-30 19:20:00,
2013-01-30 11:25:00,47.0,45.4,30.31,North,0,0.0,0.0,94,0.01,,,0.04,WUHU216HW,2013-01-30 19:25:00,
2013-01-30 11:30:00,47.0,45.4,30.30,North,0,0.4,0.4,94,0.01,,,0.04,WUHU216HW,2013-01-30 19:30:00,
2013-01-30 11:35:00,47.0,45.6,30.30,North,0,0.4,0.4,95,0.01,,,0.04,WUHU216HW,2013-01-30 19:35:00,
2013-01-30 11:40:00,47.0,45.6,30.30,North,0,0.2,0.4,95,0.01,,,0.04,WUHU216HW,2013-01-30 19:40:00,
2013-01-30 11:45:00,47.2,45.8,30.30,NW,315,0.4,0.4,95,0.01,,,0.04,WUHU216HW,2013-01-30 19:45:00,
2013-01-30 11:50:00,47.2,45.8,30.30,North,0,0.2,0.7,95,0.01,,,0.04,WUHU216HW,2013-01-30 19:50:00,
2013-01-30 11:55:00,47.2,45.8,30.30,North,0,0.0,0.7,95,0.02,,,0.05,WUHU216HW,2013-01-30 19:55:00,
2013-01-30 12:00:00,47.2,45.8,30.30,North,0,0.0,0.2,95,0.02,,,0.05,WUHU216HW,2013-01-30 20:00:00,
2013-01-30 12:05:00,47.2,45.8,30.30,North,0,0.0,0.0,95,0.02,,,0.05,WUHU216HW,2013-01-30 20:05:00,
2013-01-30 12:10:00,47.5,46.2,30.29,North,0,0.0,0.4,95,0.02,,,0.05,WUHU216HW,2013-01-30 20:10:00,
2013-01-30 12:15:00,47.5,46.2,30.29,North,0,0.4,0.4,95,0.02,,,0.05,WUHU216HW,2013-01-30 20:15:00,
2013-01-30 12:20:00,47.5,46.2,30.29,North,0,0.7,0.7,95,0.01,,,0.05,WUHU216HW,2013-01-30 20:20:00,
2013-01-30 12:25:00,47.5,46.2,30.29,North,0,0.9,0.9,95,0.01,,,0.05,WUHU216HW,2013-01-30 20:25:00,
2013-01-30 12:30:00,47.5,46.2,30.30,North,0,0.9,1.1,95,0.01,,,0.05,WUHU216HW,2013-01-30 20:30:00,
2013-01-30 12:35:00,47.5,46.2,30.30,North,0,1.1,1.1,95,0.01,,,0.05,WUHU216HW,2013-01-30 20:35:00,
2013-01-30 12:40:00,47.7,46.4,30.30,North,0,1.1,1.1,95,0.01,,,0.05,WUHU216HW,2013-01-30 20:40:00,
2013-01-30 12:45:00,47.7,46.4,30.30,North,0,0.9,1.1,95,0.01,,,0.05,WUHU216HW,2013-01-30 20:45:00,
2013-01-30 12:50:00,47.5,46.2,30.30,WSW,248,0.9,1.8,95,0.02,,,0.06,WUHU216HW,2013-01-30 20:50:00,
2013-01-30 12:55:00,47.3,46.0,30.30,NW,315,0.4,1.8,95,0.01,,,0.06,WUHU216HW,2013-01-30 20:55:00,
2013-01-30 13:00:00,47.2,45.8,30.30,NNE,23,1.1,1.3,95,0.01,,,0.06,WUHU216HW,2013-01-30 21:00:00,
2013-01-30 13:05:00,47.2,45.8,30.30,North,0,1.1,1.1,95,0.01,,,0.06,WUHU216HW,2013-01-30 21:05:00,
2013-01-30 13:10:00,47.3,46.0,30.30,North,0,0.4,1.1,95,0.01,,,0.06,WUHU216HW,2013-01-30 21:10:00,
2013-01-30 13:15:00,47.5,46.2,30.30,North,0,0.0,1.1,95,0.02,,,0.07,WUHU216HW,2013-01-30 21:15:00,
2013-01-30 13:20:00,47.5,46.2,30.30,North,0,0.0,0.0,95,0.02,,,0.07,WUHU216HW,2013-01-30 21:20:00,
2013-01-30 13:25:00,47.5,46.2,30.30,North,0,0.2,0.4,95,0.02,,,0.07,WUHU216HW,2013-01-30 21:25:00,
2013-01-30 13:30:00,47.5,46.2,30.30,North,0,0.0,0.4,95,0.02,,,0.07,WUHU216HW,2013-01-30 21:30:00,
2013-01-30 13:35:00,47.7,46.4,30.30,North,0,0.0,0.2,95,0.02,,,0.07,WUHU216HW,2013-01-30 21:35:00,
2013-01-30 13:40:00,47.7,46.4,30.30,North,0,0.2,0.4,95,0.02,,,0.07,WUHU216HW,2013-01-30 21:40:00,
2013-01-30 13:45:00,47.7,46.4,30.30,North,0,0.4,0.4,95,0.01,,,0.07,WUHU216HW,2013-01-30 21:45:00,
2013-01-30 13:50:00,47.7,46.4,30.29,North,0,0.9,1.1,95,0.01,,,0.07,WUHU216HW,2013-01-30 21:50:00,
2013-01-30 13:55:00,47.9,46.5,30.29,North,0,0.7,1.1,95,0.02,,,0.09,WUHU216HW,2013-01-30 21:55:00,
2013-01-30 14:00:00,47.9,46.5,30.29,NNE,23,0.9,0.9,95,0.02,,,0.09,WUHU216HW,2013-01-30 22:00:00,
2013-01-30 14:05:00,47.9,46.5,30.29,North,0,1.3,1.3,95,0.02,,,0.09,WUHU216HW,2013-01-30 22:05:00,
2013-01-30 14:10:00,47.9,46.5,30.29,North,0,0.7,1.3,95,0.01,,,0.09,WUHU216HW,2013-01-30 22:10:00,
2013-01-30 14:15:00,47.9,46.5,30.29,NNE,23,0.2,1.3,95,0.01,,,0.09,WUHU216HW,2013-01-30 22:15:00,
2013-01-30 14:20:00,47.9,46.5,30.29,NNE,23,0.4,0.7,95,0.01,,,0.09,WUHU216HW,2013-01-30 22:20:00,
2013-01-30 14:25:00,47.9,46.5,30.29,NNE,23,0.0,0.7,95,0.01,,,0.09,WUHU216HW,2013-01-30 22:25:00,
2013-01-30 14:30:00,47.9,46.5,30.29,NNE,23,0.0,0.4,95,0.01,,,0.09,WUHU216HW,2013-01-30 22:30:00,
2013-01-30 14:35:00,47.9,46.5,30.29,NNE,23,0.0,0.0,95,0.01,,,0.09,WUHU216HW,2013-01-30 22:35:00,
2013-01-30 14:40:00,47.9,46.5,30.29,NNE,23,0.0,0.0,95,0.01,,,0.09,WUHU216HW,2013-01-30 22:40:00,
2013-01-30 14:45:00,47.9,46.5,30.28,NNE,23,0.0,0.0,95,0.01,,,0.09,WUHU216HW,2013-01-30 22:45:00,
2013-01-30 14:50:00,47.9,46.5,30.29,NNE,23,0.0,0.0,95,0.01,,,0.09,WUHU216HW,2013-01-30 22:50:00,
2013-01-30 14:55:00,47.9,46.5,30.29,NNE,23,0.0,0.0,95,0.00,,,0.09,WUHU216HW,2013-01-30 22:55:00,
2013-01-30 15:00:00,47.9,46.5,30.29,NNE,23,0.7,0.7,95,0.00,,,0.09,WUHU216HW,2013-01-30 23:00:00,
2013-01-30 15:05:00,47.9,46.5,30.29,NNE,23,0.0,0.7,95,0.00,,,0.09,WUHU216HW,2013-01-30 23:05:00,
2013-01-30 15:10:00,48.1,46.7,30.28,NNE,23,0.0,0.7,95,0.00,,,0.09,WUHU216HW,2013-01-30 23:10:00,
2013-01-30 15:15:00,48.1,46.7,30.29,NNE,23,0.0,0.0,95,0.00,,,0.09,WUHU216HW,2013-01-30 23:15:00,
2013-01-30 15:20:00,48.2,46.9,30.29,NNE,23,0.4,0.4,95,0.00,,,0.09,WUHU216HW,2013-01-30 23:20:00,
2013-01-30 15:25:00,48.2,46.9,30.29,NNE,23,0.0,0.4,95,0.00,,,0.09,WUHU216HW,2013-01-30 23:25:00,
2013-01-30 15:30:00,48.2,46.9,30.29,NNE,23,0.4,0.4,95,0.00,,,0.09,WUHU216HW,2013-01-30 23:30:00,
2013-01-30 15:35:00,48.4,47.1,30.29,NW,315,1.1,1.1,95,0.00,,,0.09,WUHU216HW,2013-01-30 23:35:00,
2013-01-30 15:40:00,48.4,47.1,30.29,NW,315,0.4,1.1,95,0.00,,,0.09,WUHU216HW,2013-01-30 23:40:00,
2013-01-30 15:45:00,48.2,46.9,30.29,NW,315,0.0,1.1,95,0.00,,,0.09,WUHU216HW,2013-01-30 23:45:00,
2013-01-30 15:50:00,48.2,46.9,30.29,NE,45,1.3,1.3,95,0.00,,,0.09,WUHU216HW,2013-01-30 23:50:00,
2013-01-30 15:55:00,48.4,47.1,30.29,North,0,0.0,1.8,95,0.00,,,0.09,WUHU216HW,2013-01-30 23:55:00,
2013-01-30 16:00:00,48.4,47.1,30.29,NNE,23,1.1,1.8,95,0.00,,,0.09,WUHU216HW,2013-01-31 00:00:00,
2013-01-30 16:05:00,48.4,47.1,30.29,NNE,23,1.8,1.8,95,0.00,,,0.09,WUHU216HW,2013-01-31 00:05:00,
2013-01-30 16:10:00,48.2,46.9,30.29,North,0,0.0,1.8,95,0.00,,,0.09,WUHU216HW,2013-01-31 00:10:00,
2013-01-30 16:15:00,48.2,46.9,30.29,North,0,0.0,1.8,95,0.00,,,0.09,WUHU216HW,2013-01-31 00:15:00,
2013-01-30 16:20:00,48.2,46.9,30.29,North,0,1.1,1.1,95,0.00,,,0.09,WUHU216HW,2013-01-31 00:20:00,
2013-01-30 16:25:00,48.2,46.9,30.29,North,0,0.4,1.1,95,0.00,,,0.09,WUHU216HW,2013-01-31 00:25:00,
2013-01-30 16:30:00,48.2,46.9,30.29,North,0,0.0,1.1,95,0.00,,,0.09,WUHU216HW,2013-01-31 00:30:00,
2013-01-30 16:35:00,48.2,46.9,30.29,North,0,0.0,0.0,95,0.00,,,0.09,WUHU216HW,2013-01-31 00:35:00,
2013-01-30 16:40:00,48.2,46.9,30.29,North,0,0.0,0.0,95,0.00,,,0.09,WUHU216HW,2013-01-31 00:40:00,
2013-01-30 16:45:00,48.2,46.9,30.29,North,0,0.0,0.0,95,0.00,,,0.09,WUHU216HW,2013-01-31 00:45:00,
2013-01-30 16:50:00,48.2,46.6,30.29,North,0,0.0,0.0,94,0.00,,,0.09,WUHU216HW,2013-01-31 00:50:00,
2013-01-30 16:55:00,48.2,46.6,30.29,North,0,0.0,0.0,94,0.00,,,0.09,WUHU216HW,2013-01-31 00:55:00,
2013-01-30 17:00:00,48.1,46.4,30.29,West,270,0.0,0.9,94,0.00,,,0.09,WUHU216HW,2013-01-31 01:00:00,
2013-01-30 17:05:00,48.1,46.4,30.29,West,270,0.0,0.9,94,0.00,,,0.09,WUHU216HW,2013-01-31 01:05:00,
2013-01-30 17:10:00,48.1,46.4,30.29,West,270,0.0,0.0,94,0.00,,,0.09,WUHU216HW,2013-01-31 01:10:00,
2013-01-30 17:15:00,48.1,46.4,30.29,West,270,0.0,0.0,94,0.00,,,0.09,WUHU216HW,2013-01-31 01:15:00,
2013-01-30 17:20:00,48.1,46.4,30.29,West,270,0.0,0.0,94,0.00,,,0.09,WUHU216HW,2013-01-31 01:20:00,
2013-01-30 17:25:00,47.9,46.3,30.30,West,270,0.0,0.0,94,0.00,,,0.09,WUHU216HW,2013-01-31 01:25:00,
2013-01-30 17:30:00,48.1,46.4,30.29,West,270,0.0,0.0,94,0.00,,,0.09,WUHU216HW,2013-01-31 01:30:00,
2013-01-30 17:35:00,47.9,46.3,30.29,West,270,0.0,0.0,94,0.00,,,0.09,WUHU216HW,2013-01-31 01:35:00,
2013-01-30 17:40:00,47.9,46.3,30.29,West,270,0.0,0.0,94,0.00,,,0.09,WUHU216HW,2013-01-31 01:40:00,
2013-01-30 17:45:00,47.9,46.3,30.29,West,270,0.0,0.0,94,0.00,,,0.09,WUHU216HW,2013-01-31 01:45:00,
2013-01-30 17:50:00,47.9,46.3,30.29,West,270,0.0,0.0,94,0.00,,,0.09,WUHU216HW,2013-01-31 01:50:00,
2013-01-30 17:55:00,47.9,46.3,30.30,West,270,0.0,0.0,94,0.00,,,0.09,WUHU216HW,2013-01-31 01:55:00,
2013-01-30 18:00:00,47.9,46.3,30.30,West,270,0.0,0.0,94,0.00,,,0.09,WUHU216HW,2013-01-31 02:00:00,
2013-01-30 18:05:00,47.7,46.1,30.29,West,270,0.0,0.0,94,0.00,,,0.09,WUHU216HW,2013-01-31 02:05:00,
2013-01-30 18:10:00,47.7,46.1,30.29,West,270,0.0,0.0,94,0.00,,,0.09,WUHU216HW,2013-01-31 02:10:00,
2013-01-30 18:15:00,47.7,46.1,30.29,West,270,0.0,0.0,94,0.00,,,0.09,WUHU216HW,2013-01-31 02:15:00,
2013-01-30 18:20:00,47.7,46.1,30.29,SW,225,0.2,0.9,94,0.00,,,0.09,WUHU216HW,2013-01-31 02:20:00,
2013-01-30 18:25:00,47.5,45.9,30.29,SW,225,0.0,0.9,94,0.00,,,0.09,WUHU216HW,2013-01-31 02:25:00,
2013-01-30 18:30:00,47.5,45.9,30.29,SW,225,0.0,0.0,94,0.00,,,0.09,WUHU216HW,2013-01-31 02:30:00,
2013-01-30 18:35:00,47.5,45.9,30.29,SW,225,0.0,0.0,94,0.00,,,0.09,WUHU216HW,2013-01-31 02:35:00,
2013-01-30 18:40:00,47.5,45.9,30.29,SW,225,0.4,0.4,94,0.00,,,0.09,WUHU216HW,2013-01-31 02:40:00,
2013-01-30 18:45:00,47.5,46.2,30.29,SW,225,0.0,0.4,95,0.00,,,0.09,WUHU216HW,2013-01-31 02:45:00,
2013-01-30 18:50:00,47.5,46.2,30.29,SW,225,0.0,0.4,95,0.00,,,0.09,WUHU216HW,2013-01-31 02:50:00,
2013-01-30 18:55:00,47.3,46.0,30.29,SW,225,0.4,0.4,95,0.00,,,0.09,WUHU216HW,2013-01-31 02:55:00,
2013-01-30 19:00:00,47.3,46.0,30.29,SSW,203,0.0,0.4,95,0.00,,,0.09,WUHU216HW,2013-01-31 03:00:00,
2013-01-30 19:05:00,47.3,46.0,30.29,South,180,0.0,0.4,95,0.00,,,0.09,WUHU216HW,2013-01-31 03:05:00,
2013-01-30 19:10:00,47.3,46.0,30.29,South,180,0.0,0.0,95,0.00,,,0.09,WUHU216HW,2013-01-31 03:10:00,
2013-01-30 19:15:00,47.3,46.0,30.29,SSW,203,1.1,1.1,95,0.00,,,0.09,WUHU216HW,2013-01-31 03:15:00,
2013-01-30 19:20:00,47.3,46.0,30.29,SSW,203,0.4,1.1,95,0.00,,,0.09,WUHU216HW,2013-01-31 03:20:00,
2013-01-30 19:25:00,47.2,45.8,30.29,SSW,203,0.0,1.1,95,0.00,,,0.09,WUHU216HW,2013-01-31 03:25:00,
2013-01-30 19:30:00,47.2,45.8,30.29,SSW,203,0.0,0.4,95,0.00,,,0.09,WUHU216HW,2013-01-31 03:30:00,
2013-01-30 19:35:00,47.2,45.8,30.29,SSW,203,1.1,1.1,95,0.00,,,0.09,WUHU216HW,2013-01-31 03:35:00,
2013-01-30 19:40:00,47.2,45.8,30.29,SSW,203,0.0,1.1,95,0.00,,,0.09,WUHU216HW,2013-01-31 03:40:00,
2013-01-30 19:45:00,47.2,45.8,30.29,SSW,203,0.0,1.1,95,0.00,,,0.09,WUHU216HW,2013-01-31 03:45:00,
2013-01-30 19:51:00,47.2,45.8,30.29,SSW,203,0.9,0.9,95,0.00,,,0.09,WUHU216HW,2013-01-31 03:51:00,
2013-01-30 19:56:00,47.2,45.8,30.29,SSW,203,0.7,0.9,95,0.00,,,0.09,WUHU216HW,2013-01-31 03:56:00,
2013-01-30 20:01:00,47.2,45.8,30.29,SSW,203,0.0,0.9,95,0.00,,,0.09,WUHU216HW,2013-01-31 04:01:00,
2013-01-30 20:06:00,47.2,45.8,30.29,SSW,203,0.7,0.9,95,0.00,,,0.09,WUHU216HW,2013-01-31 04:06:00,
2013-01-30 20:11:00,47.2,45.8,30.29,SSW,203,0.0,0.9,95,0.00,,,0.09,WUHU216HW,2013-01-31 04:11:00,
2013-01-30 20:16:00,47.2,45.8,30.29,SSW,203,1.1,1.1,95,0.00,,,0.09,WUHU216HW,2013-01-31 04:16:00,
2013-01-30 20:21:00,47.0,45.6,30.29,SSW,203,1.1,1.1,95,0.00,,,0.09,WUHU216HW,2013-01-31 04:21:00,
2013-01-30 20:26:00,47.0,45.6,30.29,SSW,203,1.1,1.1,95,0.00,,,0.09,WUHU216HW,2013-01-31 04:26:00,
2013-01-30 20:31:00,47.0,45.4,30.29,SSW,203,0.9,1.1,94,0.00,,,0.09,WUHU216HW,2013-01-31 04:31:00,
2013-01-30 20:36:00,47.0,45.4,30.29,SW,225,0.0,1.1,94,0.00,,,0.09,WUHU216HW,2013-01-31 04:36:00,
2013-01-30 20:41:00,47.0,45.4,30.29,SW,225,0.0,0.9,94,0.00,,,0.09,WUHU216HW,2013-01-31 04:41:00,
2013-01-30 20:46:00,47.0,45.4,30.29,SW,225,0.0,0.0,94,0.00,,,0.09,WUHU216HW,2013-01-31 04:46:00,
2013-01-30 20:51:00,46.8,45.2,30.28,SW,225,0.0,0.0,94,0.00,,,0.09,WUHU216HW,2013-01-31 04:51:00,
2013-01-30 20:56:00,46.8,45.2,30.29,SW,225,0.7,0.9,94,0.00,,,0.09,WUHU216HW,2013-01-31 04:56:00,
2013-01-30 21:00:00,46.8,45.2,30.29,SW,225,0.9,0.9,94,0.00,,,0.09,WUHU216HW,2013-01-31 05:00:00,
2013-01-30 21:01:00,46.8,45.2,30.29,SW,225,0.9,0.9,94,0.00,,,0.09,WUHU216HW,2013-01-31 05:01:00,
2013-01-30 21:06:00,46.8,45.2,30.29,SW,225,0.2,0.9,94,0.00,,,0.09,WUHU216HW,2013-01-31 05:06:00,
2013-01-30 21:11:00,46.8,45.2,30.30,SSW,203,0.7,0.7,94,0.00,,,0.09,WUHU216HW,2013-01-31 05:11:00,
2013-01-30 21:16:00,46.8,45.2,30.30,SSW,203,0.0,0.7,94,0.00,,,0.09,WUHU216HW,2013-01-31 05:16:00,
2013-01-30 21:21:00,46.8,45.2,30.30,SSW,203,0.0,0.7,94,0.00,,,0.09,WUHU216HW,2013-01-31 05:21:00,
2013-01-30 21:26:00,46.8,45.2,30.30,SSW,203,0.0,0.0,94,0.00,,,0.09,WUHU216HW,2013-01-31 05:26:00,
2013-01-30 21:31:00,46.8,45.2,30.29,SSW,203,0.0,0.0,94,0.00,,,0.09,WUHU216HW,2013-01-31 05:31:00,
2013-01-30 21:36:00,46.8,45.2,30.29,SSW,203,0.0,0.0,94,0.00,,,0.09,WUHU216HW,2013-01-31 05:36:00,
2013-01-30 21:41:00,46.6,45.0,30.29,SSW,203,0.0,0.0,94,0.00,,,0.09,WUHU216HW,2013-01-31 05:41:00,
2013-01-30 21:46:00,46.6,45.0,30.30,SSW,203,0.0,0.0,94,0.00,,,0.09,WUHU216HW,2013-01-31 05:46:00,
2013-01-30 21:51:00,46.6,45.0,30.30,SSW,203,0.0,0.0,94,0.01,,,0.09,WUHU216HW,2013-01-31 05:51:00,
2013-01-30 21:56:00,46.6,45.0,30.30,SSW,203,0.0,0.0,94,0.01,,,0.09,WUHU216HW,2013-01-31 05:56:00,
2013-01-30 22:01:00,46.6,45.0,30.30,SSW,203,0.0,0.0,94,0.01,,,0.09,WUHU216HW,2013-01-31 06:01:00,
2013-01-30 22:06:00,46.6,45.0,30.30,SSW,203,0.0,0.0,94,0.01,,,0.09,WUHU216HW,2013-01-31 06:06:00,
2013-01-30 22:11:00,46.6,45.0,30.30,SSW,203,0.0,0.0,94,0.01,,,0.09,WUHU216HW,2013-01-31 06:11:00,
2013-01-30 22:16:00,46.6,45.0,30.30,SSW,203,0.0,0.0,94,0.01,,,0.09,WUHU216HW,2013-01-31 06:16:00,
2013-01-30 22:21:00,46.6,45.0,30.30,SSW,203,0.0,0.0,94,0.01,,,0.09,WUHU216HW,2013-01-31 06:21:00,
2013-01-30 22:26:00,46.6,45.0,30.30,South,180,0.0,0.0,94,0.01,,,0.09,WUHU216HW,2013-01-31 06:26:00,
2013-01-30 22:31:00,46.6,45.0,30.30,South,180,0.0,0.0,94,0.01,,,0.09,WUHU216HW,2013-01-31 06:31:00,
2013-01-30 22:36:00,46.4,44.8,30.30,South,180,0.0,0.0,94,0.01,,,0.09,WUHU216HW,2013-01-31 06:36:00,
2013-01-30 22:41:00,46.4,44.8,30.30,South,180,0.0,0.0,94,0.01,,,0.09,WUHU216HW,2013-01-31 06:41:00,
2013-01-30 22:46:00,46.4,44.8,30.30,South,180,0.0,0.0,94,0.01,,,0.09,WUHU216HW,2013-01-31 06:46:00,
2013-01-30 22:51:00,46.4,44.8,30.30,South,180,0.0,0.0,94,0.00,,,0.09,WUHU216HW,2013-01-31 06:51:00,
2013-01-30 22:56:00,46.4,44.8,30.30,South,180,0.0,0.0,94,0.00,,,0.09,WUHU216HW,2013-01-31 06:56:00,
2013-01-30 23:01:00,46.4,44.8,30.30,South,180,0.0,0.0,94,0.00,,,0.09,WUHU216HW,2013-01-31 07:01:00,
2013-01-30 23:06:00,46.4,44.8,30.30,South,180,0.4,0.4,94,0.00,,,0.09,WUHU216HW,2013-01-31 07:06:00,
2013-01-30 23:11:00,46.4,44.8,30.30,South,180,0.0,0.4,94,0.00,,,0.09,WUHU216HW,2013-01-31 07:11:00,
2013-01-30 23:16:00,46.4,44.8,30.30,South,180,0.0,0.0,94,0.00,,,0.09,WUHU216HW,2013-01-31 07:16:00,
2013-01-30 23:21:00,46.4,44.8,30.30,South,180,0.4,0.4,94,0.00,,,0.09,WUHU216HW,2013-01-31 07:21:00,
2013-01-30 23:26:00,46.4,44.8,30.30,South,180,0.0,0.4,94,0.00,,,0.09,WUHU216HW,2013-01-31 07:26:00,
2013-01-30 23:31:00,46.3,44.6,30.30,SW,225,0.4,0.4,94,0.00,,,0.09,WUHU216HW,2013-01-31 07:31:00,
2013-01-30 23:36:00,46.3,44.6,30.31,SW,225,0.7,0.7,94,0.00,,,0.09,WUHU216HW,2013-01-31 07:36:00,
2013-01-30 23:41:00,46.3,44.6,30.31,SSW,203,1.3,1.6,94,0.00,,,0.09,WUHU216HW,2013-01-31 07:41:00,
2013-01-30 23:46:00,46.3,44.6,30.31,SSW,203,1.1,1.6,94,0.00,,,0.09,WUHU216HW,2013-01-31 07:46:00,
2013-01-30 23:51:00,46.3,44.6,30.31,SSW,203,0.9,1.3,94,0.00,,,0.09,WUHU216HW,2013-01-31 07:51:00,
2013-01-30 23:56:00,46.3,44.6,30.31,SSW,203,0.4,1.1,94,0.00,,,0.09,WUHU216HW,2013-01-31 07:56:00,